Regional Weather Roundup
Issued by NWS

Home | Current Version | Previous Version | Graphics & Text | Print | Product List | Glossary On
Versions: 1 2 3 4 5 6 7 8 9 10 11 12 13 14 15 16 17 18 19 20 21 22 23 24 25 26 27 28
000
ASUS45 KTFX 191510
RWRMT
MONTANA REGIONAL WEATHER ROUNDUP
NATIONAL WEATHER SERVICE GREAT FALLS MT
800 AM MST SUN FEB 19 2017

NOTE: "FAIR" INDICATES FEW OR NO CLOUDS BELOW 12000 FEET WITH NO
SIGNIFICANT WEATHER AND/OR OBSTRUCTIONS TO VISIBILITY.

MTZ001>007-043-191600-
WEST OF THE DIVIDE

CITY           SKY/WX    TMP DP  RH WIND       PRES   REMARKS
KALISPELL      MOCLDY    34  32  92 CALM      29.47R
MISSOULA       CLOUDY    34  32  92 N3        29.50R
BUTTE          CLOUDY    36  30  79 CALM      29.48R
MULLAN PASS    FOG       26  25  96 S7        29.42R VSB 1/2 WCI  18
ANACONDA         N/A     34  28  80 CALM      29.48
DEER LODGE       N/A     36  32  87 CALM      29.50R
EUREKA           N/A     34  30  86 S9        29.45S WCI  26
HAMILTON         N/A     36  30  80 CALM      29.49R
LIBBY            N/A     32  32 100 CALM      29.47S VSB 1/4
PLAINS           N/A     33  29  86 CALM      29.55R VSB 0
RONAN            N/A     33  31  93 CALM      29.57R
$$

MTZ008-052>055-191600-
SOUTHWEST MONTANA

CITY           SKY/WX    TMP DP  RH WIND       PRES   REMARKS
BOZEMAN        CLOUDY    36  32  85 SW6       29.46R WCI  31
DILLON         CLOUDY    36  29  75 N5        29.46R
ENNIS          CLOUDY    41  28  60 S17G25    29.53R
THREE FORKS      N/A     43 -13   9 SW2       29.52R
TWIN BRIDGES     N/A     35  29  79 CALM      29.53R
$$

MTZ009-010-012-014-046-048-049-054-191600-
EAST SLOPES AND CENTRAL MONTANA

CITY           SKY/WX    TMP DP  RH WIND       PRES   REMARKS
CUT BANK       PTCLDY    37  29  72 W18       29.36R WCI  27
GREAT FALLS    CLOUDY    43  33  68 SW13      29.40R
MALMSTROM AFB  CLOUDY    45  35  67 SW20      29.40R
HELENA         CLOUDY    38  34  85 W3        29.46R
AUGUSTA        MOCLDY    38  30  70 SW5       29.40R
BOWMANS CRNR     N/A     37  30  75 SW15      29.39R WCI  28
CHOTEAU          N/A     39  32  75 W7        29.40R
CONRAD           N/A     30  30 100 CALM      29.46R
POWER          MOCLDY    40  33  74 S12       29.38R
RAYNESFORD     CLOUDY    45  33  64 CALM      29.41R
ULM            MOCLDY    45  33  64 MISG      29.41R
$$

MTZ011-013-016-021-045-047-050-051-191600-
NORTH CENTRAL MONTANA

CITY           SKY/WX    TMP DP  RH WIND       PRES   REMARKS
HAVRE          CLOUDY    31  30  96 CALM      29.40R FOG
LEWISTOWN      CLOUDY    40  29  64 CALM      29.41R
N BAR RANCH    CLOUDY    39  28  65 W5        29.45R
CHINOOK          N/A     32  30  93 E12       29.39S WCI  23
DENTON         MOCLDY    40  31  68 W3        29.36R
FORT BENTON      N/A    N/A N/A N/A MISG      29.40R
GEYSER         MOCLDY    45  32  62 W13       29.40R
GRASS RANGE    CLOUDY    41  30  66 SW6       29.37R
JUDITH GAP     MOCLDY    37  31  77 S8        29.43R WCI  31
ROY            CLOUDY    36  31  83 MISG      29.38R
STANFORD       MOCLDY    40  33  76 SW13      29.41R
WINIFRED       LGT RAIN  39  33  80 SE7       29.39R
$$

MTZ017>020-022>027-061-062-191600-
NORTHEAST MONTANA

CITY           SKY/WX    TMP DP  RH WIND       PRES   REMARKS
GLASGOW        CLOUDY    31  30  96 E18G25    29.46R FOG     WCI  19
JORDAN           N/A     30  27  88 CALM      29.43S
SIDNEY         FOG       32  31  96 NE6       29.53S VSB 1/2 WCI  26
WOLF POINT     FOG       32  30  92 E13       29.51S VSB 3/4 WCI  22
PLENTYWOOD       N/A     30  28  93 E14       29.55S WCI  20
POPLAR           N/A     30  30 100 E10G17    29.52F VSB 1/4 WCI  21
SCOBEY           N/A     31  25  78 E6        29.52F WCI  25
$$

MTZ028>42-056>058-191600-
SOUTHCENTRAL AND SOUTHEAST MONTANA

CITY           SKY/WX    TMP DP  RH WIND       PRES   REMARKS
BAKER          CLOUDY    32  29  88 E7        29.49R WCI  26
BILLINGS       CLOUDY    40  32  73 W10       29.44R
LIVINGSTON     CLOUDY    45  32  60 W15       29.45R
MILES CITY     CLOUDY    33  29  85 E3        29.45F
BIG TIMBER     PTCLDY    36  30  80 S7        29.48R WCI  30
EKALAKA          N/A     43  31  63 SE8       29.51S
FORSYTH          N/A     30  30 100 CALM      29.43R
HARLOWTON      MOCLDY    32  28  88 CALM      29.44R
LAUREL           N/A     39  24  55 SW8       29.47R
$$

REGIONAL REPORTS...DAKOTAS

CITY           SKY/WX    TMP DP  RH WIND       PRES   REMARKS
WILLISTON      CLOUDY    33  31  92 E6        29.55F WCI  28
MINOT          CLOUDY    35  32  88 E10       29.61F WCI  27
DICKINSON      FOG       29  28  96 E9        29.50F VSB 1/4 WCI  20
BEACH            N/A    N/A N/A N/A MISG        N/A
CROSBY         CLOUDY    32  32 100 E17G24    29.61F WCI  21
TIOGA          FOG       30  30 100 E17       29.59R VSB 1/4 WCI  18
WATFORD CITY   FOG       32  32 100 E12       29.55F VSB 1/4 WCI  23
BISMARCK       CLOUDY    36  33  89 E8        29.59F WCI  30
GRAND FORKS    CLOUDY    38  31  76 SE16      29.76F WCI  29
FARGO          MOSUNNY   43  38  82 SE14      29.76F
BUFFALO SD       N/A     39  32  76 S6        29.45S
RAPID CITY     MOSUNNY   37  30  75 CALM      29.55F
$$

REGIONAL REPORTS...WYOMING/IDAHO/WASHINGTON

CITY           SKY/WX    TMP DP  RH WIND       PRES   REMARKS
GILLETTE       CLOUDY    48  32  53 SW18G29   29.50S
SHERIDAN       CLOUDY    32  28  85 VRB7      29.47R WCI  26
BUFFALO WY     CLOUDY    47  26  44 S9        29.49S
CODY           CLOUDY    31  26  82 S6        29.51R WCI  25
YELLOWSTONE LA   N/A     28  27  96 SE3       29.61R
IDAHO FALLS    CLOUDY    36  35  96 S10       29.61R WCI  28
SALMON         CLOUDY    34  32  93 CALM      29.50R
BOISE          CLOUDY    40  36  86 E6        29.59R
SPOKANE        LGT SNOW  34  32  92 S7        29.48R FOG     WCI  28
$$

REGIONAL REPORTS...ALBERTA

CITY           SKY/WX    TMP DP  RH WIND       PRES   REMARKS
EDMONTON       CLOUDY    32  32 100 SE3       29.36F
CALGARY        CLOUDY    28  27  93 NW5       29.33R
LETHBRIDGE     MOCLDY    32  32 100 W13       29.34R WCI  22
MEDICINE HAT   CLOUDY    27  27 100 VRB2      29.36R
WATERTON GATE    N/A     36  30  80 SW10        N/A  WCI  28
CARDSTON         N/A     36  28  75 SW5         N/A
MILK RIVER       N/A     32  30  93 NW5         N/A
$$

REGIONAL REPORTS...SASKATCHEWAN

CITY           SKY/WX    TMP DP  RH WIND       PRES   REMARKS
SWIFT CURRENT  CLEAR     30  30 100 E16       29.41F WCI  19
REGINA         MOCLDY    32  27  80 SE24G30   29.59S WCI  19
SASKATOON      CLOUDY    34  28  80 SE17G24   29.58F WCI  23
CYPRESS HILLS    N/A     28  27  93 SE10        N/A  WCI  19
VAL MARIE        N/A     32  28  86 E2          N/A
ROCKGLEN         N/A     30  28  93 SE12        N/A  WCI  21
ASSINIBOIA       N/A     34  32  93 SE7         N/A  WCI  28
$$




USA.gov is the U.S. government's official web portal to all federal, state and local government web resources and services.